Find Starlink 34020

NORAD ID: 63939 Int'l Des: 2025-098 Owner: SPXS Country: US Constellation: starlink operational
LEOCIRCULAR

当前视图

正在加载3D地球...

About Starlink 34020

Starlink 34020 (NORAD 63939) is a starlink constellation satellite (v2 mini) launched May 13, 2025 by SPXS of US. It operates in LEO, CIRCULAR orbit with a mass of 575.00 kg.

即将过境

Passes for default location (London). Set your location on the main map for personalized predictions.

高度历史

Loading altitude history...

两行轨道根数

1 63939U 25098P 26263.10363617 .00012043 00000-0 42264-3 0 9991
2 63939 70.0004 141.8843 0002398 301.0168 59.0771 15.29586931 75733
Epoch: Sep 20, 2026 • Age: 11 hours

当前状态

高度 489.9 km
远地点 / 近地点 N/A
速度 7.63 km/s
星下点 69.97°N, 29.84°E
发射日期 May 13, 2025
运行时间 1.3 years
类型 internet

技术详情

分类 Payload
质量 575.00 kg
干质量 530.00 kg
长度 0.30 m
跨度 29.00 m
形状 ? Box + pan
制造商 SPXS
平台类型 Starlink V2MO
阶段状态 In Orbit
所有者/国家 SPXS/US

Most Searched